Weather History for KWYS - June, 2013

Change the Weather History Date:

Saturday, June 22, 2013

  Actual Average Record
Temperature  
Mean Temperature 40 °F -  
Max Temperature 53 °F 71 °F 73 °F (2011)
Min Temperature 26 °F 37 °F 26 °F (2013)
Degree Days  
Heating Degree Days 26    
Moisture  
Dew Point 37 °F    
Average Humidity 85    
Maximum Humidity 100    
Minimum Humidity 80    
Precipitation  
Precipitation 0.03 in - - ()
Sea Level Pressure  
Sea Level Pressure 30.11 in    
Wind  
Wind Speed 3 mph (SW)    
Max Wind Speed 16 mph    
Max Gust Speed 28 mph    
Visibility 10 miles    
Events Rain    
Averages and records for this station are not official NWS values.
T = Trace of Precipitation, MM = Missing Value Source: NWS Daily Summary

Daily Weather History Graph

Daily Weather History Graph

Search for Another Location

Airport or City:

Trip Planner

Search our weather history database for the weather conditions in past years. The results will help you decide how hot, cold, wet, or windy it might be!

Date:

Astronomy

Jun. 22, 2013 Rise Set
Actual Time 5:39 AM MDT 9:13 PM MDT
Civil Twilight 5:02 AM MDT 9:50 PM MDT
Nautical Twilight 4:13 AM MDT 10:40 PM MDT
Astronomical Twilight 3:08 AM MDT 11:44 PM MDT
Moon 8:29 PM MDT (6/22) 4:58 AM MDT (6/22)
Length of Visible Light 16h 48m
Length of Day
15h 34m
Waxing Gibbous, 99% of the Moon is Illuminated
Jun 22
Waxing Gibbous
Jun 23
Full
Jun 29
Last Quarter
Jul 8
New
Jul 15
First Quarter

Hourly Weather History & Observations

Time (MDT) Temp. Windchill Dew Point Humidity Pressure Visibility Wind Dir Wind Speed Gust Speed Precip Events Conditions
12:10 AM 42.8 °F 41.1 °F 39.2 °F 87% 30.10 in 10.0 mi WSW 3.5 mph - N/A   Clear
12:30 AM 41.0 °F 38.0 °F 35.6 °F 81% 30.10 in 10.0 mi ESE 4.6 mph - N/A   Clear
12:50 AM 39.2 °F - 33.8 °F 81% 30.10 in 10.0 mi Calm Calm - N/A   Clear
1:10 AM 37.4 °F - 32.0 °F 81% 30.10 in 10.0 mi Calm Calm - N/A   Clear
1:30 AM 35.6 °F - 32.0 °F 87% 30.09 in 10.0 mi Calm Calm - N/A   Clear
1:50 AM 32.0 °F - 28.4 °F 87% 30.09 in 10.0 mi Calm Calm - N/A   Clear
2:10 AM 32.0 °F 28.7 °F 28.4 °F 87% 30.09 in 10.0 mi SW 3.5 mph - N/A   Clear
2:30 AM 32.0 °F - 26.6 °F 80% 30.09 in 10.0 mi Calm Calm - N/A   Clear
2:50 AM 30.2 °F - 26.6 °F 86% 30.09 in 10.0 mi Calm Calm - N/A   Clear
3:10 AM 28.4 °F - 24.8 °F 86% 30.09 in 10.0 mi Calm Calm - N/A   Clear
3:30 AM 28.4 °F - 24.8 °F 86% 30.09 in 10.0 mi Calm Calm - N/A   Clear
3:50 AM 26.6 °F - 23.0 °F 86% 30.09 in 10.0 mi Calm Calm - N/A   Clear
4:10 AM 26.6 °F 22.6 °F 23.0 °F 86% 30.09 in 10.0 mi SSW 3.5 mph - N/A   Partly Cloudy
4:30 AM 26.6 °F - 23.0 °F 86% 30.09 in 10.0 mi Calm Calm - N/A   Mostly Cloudy
4:50 AM 26.6 °F - 26.6 °F 100% 30.09 in 10.0 mi Calm Calm - N/A   Scattered Clouds
5:10 AM 28.4 °F - 28.4 °F 100% 30.09 in 10.0 mi Calm Calm - N/A   Scattered Clouds
5:30 AM 26.6 °F - 26.6 °F 100% 30.09 in 10.0 mi Calm Calm - N/A   Scattered Clouds
5:50 AM 26.6 °F - 26.6 °F 100% 30.09 in 10.0 mi Calm Calm - N/A   Clear
6:10 AM 28.4 °F - 28.4 °F 100% 30.10 in 10.0 mi Calm Calm - N/A   Clear
6:30 AM 32.0 °F - 28.4 °F 87% 30.11 in 10.0 mi Calm Calm - N/A   Scattered Clouds
6:50 AM 32.0 °F - 28.4 °F 87% 30.10 in 10.0 mi Calm Calm - N/A   Mostly Cloudy
7:10 AM 35.6 °F 31.7 °F 32.0 °F 87% 30.11 in 10.0 mi ENE 4.6 mph - N/A   Mostly Cloudy
7:30 AM 39.2 °F 37.0 °F 33.8 °F 81% 30.11 in 10.0 mi East 3.5 mph - N/A   Mostly Cloudy
7:50 AM 39.2 °F 37.0 °F 33.8 °F 81% 30.13 in 10.0 mi South 3.5 mph - N/A Rain Light Rain
8:10 AM 41.0 °F 38.0 °F 37.4 °F 87% 30.12 in 10.0 mi WSW 4.6 mph - N/A   Mostly Cloudy
8:30 AM 41.0 °F 38.0 °F 37.4 °F 87% 30.13 in 10.0 mi SSW 4.6 mph - N/A   Mostly Cloudy
8:50 AM 44.6 °F 42.2 °F 39.2 °F 81% 30.13 in 10.0 mi SW 4.6 mph - N/A   Scattered Clouds
9:10 AM 44.6 °F 39.2 °F 39.2 °F 81% 30.13 in 10.0 mi SW 10.4 mph - N/A   Mostly Cloudy
9:30 AM 42.8 °F 39.3 °F 39.2 °F 87% 30.13 in 8.0 mi WSW 5.8 mph - N/A Rain Light Rain
9:50 AM 41.0 °F 39.0 °F 37.4 °F 87% 30.14 in 8.0 mi West 3.5 mph - N/A Rain Light Rain
10:10 AM 41.0 °F - 37.4 °F 87% 30.13 in 10.0 mi Calm Calm - N/A Rain Light Rain
10:30 AM 41.0 °F 39.0 °F 37.4 °F 87% 30.13 in 10.0 mi SW 3.5 mph - N/A   Overcast
10:50 AM 41.0 °F - 37.4 °F 87% 30.13 in 10.0 mi Calm Calm - N/A Rain Light Rain
11:10 AM 42.8 °F 40.1 °F 39.2 °F 87% 30.13 in 10.0 mi South 4.6 mph - N/A   Overcast
11:30 AM 44.6 °F 43.1 °F 41.0 °F 87% 30.13 in 10.0 mi South 3.5 mph - N/A   Overcast
11:50 AM 48.2 °F - 42.8 °F 82% 30.12 in 10.0 mi SSW 8.1 mph - N/A   Overcast
12:10 PM 48.2 °F - 44.6 °F 87% 30.12 in 10.0 mi WSW 8.1 mph - N/A   Mostly Cloudy
12:30 PM 50.0 °F - 46.4 °F 87% 30.11 in 10.0 mi South 11.5 mph - N/A   Mostly Cloudy
12:50 PM 51.8 °F - 46.4 °F 82% 30.10 in 10.0 mi SSW 12.7 mph 17.3 mph N/A   Mostly Cloudy
1:10 PM 53.6 °F - 48.2 °F 82% 30.10 in 10.0 mi SW 11.5 mph 23.0 mph N/A   Mostly Cloudy
1:30 PM 53.6 °F - 50.0 °F 88% 30.10 in 10.0 mi SW 13.8 mph 20.7 mph N/A   Scattered Clouds
1:50 PM 53.6 °F - 48.2 °F 82% 30.09 in 10.0 mi SSW 6.9 mph 23.0 mph N/A   Mostly Cloudy
2:10 PM 53.6 °F - 48.2 °F 82% 30.08 in 10.0 mi SSW 16.1 mph 26.5 mph N/A   Mostly Cloudy
2:30 PM 50.0 °F - 46.4 °F 87% 30.11 in 10.0 mi West 12.7 mph 27.6 mph N/A   Mostly Cloudy
2:50 PM 46.4 °F 41.9 °F 42.8 °F 87% 30.13 in 10.0 mi West 9.2 mph - N/A   Overcast
3:10 PM 42.8 °F 39.3 °F 37.4 °F 81% 30.14 in 9.0 mi West 5.8 mph - N/A Rain Light Rain
3:30 PM 44.6 °F 42.2 °F 39.2 °F 81% 30.13 in 9.0 mi NW 4.6 mph - 0.01 in Rain Light Rain
3:50 PM 42.8 °F 41.1 °F 39.2 °F 87% 30.13 in 4.0 mi NW 3.5 mph - 0.02 in Rain Light Rain
4:10 PM 44.6 °F - 39.2 °F 81% 30.12 in 10.0 mi Calm Calm - N/A   Scattered Clouds
4:30 PM 46.4 °F 45.2 °F 41.0 °F 81% 30.12 in 10.0 mi NNE 3.5 mph - N/A   Scattered Clouds
4:50 PM 46.4 °F - 41.0 °F 81% 30.12 in 10.0 mi Calm Calm - N/A   Mostly Cloudy
5:10 PM 44.6 °F 40.7 °F 41.0 °F 87% 30.12 in 2.0 mi SSW 6.9 mph - 0.01 in Rain Light Rain
5:30 PM 46.4 °F - 41.0 °F 81% 30.11 in 10.0 mi Calm Calm - 0.01 in   Scattered Clouds
5:50 PM 46.4 °F 43.5 °F 42.8 °F 87% 30.11 in 10.0 mi SSE 5.8 mph - 0.01 in   Mostly Cloudy
6:10 PM 48.2 °F - 42.8 °F 82% 30.10 in 10.0 mi Calm Calm - N/A   Mostly Cloudy
6:30 PM 50.0 °F - 44.6 °F 82% 30.11 in 10.0 mi NE 3.5 mph - N/A   Partly Cloudy
6:50 PM 50.0 °F - 44.6 °F 82% 30.10 in 10.0 mi North 3.5 mph - N/A   Mostly Cloudy
7:10 PM 50.0 °F - 44.6 °F 82% 30.11 in 10.0 mi North 4.6 mph - N/A   Overcast
7:30 PM 50.0 °F - 44.6 °F 82% 30.11 in 10.0 mi Calm Calm - N/A   Overcast
7:50 PM 50.0 °F - 44.6 °F 82% 30.11 in 10.0 mi ESE 3.5 mph - N/A   Mostly Cloudy
8:10 PM 50.0 °F - 44.6 °F 82% 30.11 in 10.0 mi Calm Calm - N/A   Mostly Cloudy
8:30 PM 48.2 °F - 44.6 °F 87% 30.11 in 10.0 mi SE 3.5 mph - N/A   Mostly Cloudy
8:50 PM 48.2 °F - 42.8 °F 82% 30.12 in 10.0 mi ESE 3.5 mph - N/A   Scattered Clouds
9:10 PM 44.6 °F - 39.2 °F 81% 30.12 in 10.0 mi Calm Calm - N/A   Scattered Clouds
9:30 PM 41.0 °F - 37.4 °F 87% 30.13 in 10.0 mi Calm Calm - N/A   Mostly Cloudy
9:50 PM 42.8 °F 41.1 °F 37.4 °F 81% 30.14 in 10.0 mi WNW 3.5 mph - N/A   Overcast
10:10 PM 41.0 °F - 37.4 °F 87% 30.14 in 10.0 mi Calm Calm - N/A   Overcast
10:30 PM 41.0 °F - 37.4 °F 87% 30.15 in 10.0 mi Calm Calm - N/A   Mostly Cloudy
10:50 PM 41.0 °F 38.0 °F 37.4 °F 87% 30.15 in 10.0 mi NE 4.6 mph - N/A   Mostly Cloudy
11:10 PM 41.0 °F - 35.6 °F 81% 30.14 in 10.0 mi Calm Calm - N/A   Mostly Cloudy
11:30 PM 39.2 °F - 35.6 °F 87% 30.14 in 10.0 mi Calm Calm - N/A   Mostly Cloudy
11:50 PM 39.2 °F - 35.6 °F 87% 30.13 in 10.0 mi Calm Calm - N/A   Mostly Cloudy